TimePDT,TemperatureF,Dew PointF,Humidity,Sea Level PressureIn,VisibilityMPH,Wind Direction,Wind SpeedMPH,Gust SpeedMPH,PrecipitationIn,Events,Conditions,WindDirDegrees,DateUTC
12:05 AM,60.8,50.0,68,30.01,8.0,West,6.9,-,N/A,Rain,Light Rain,270,2013-03-31 07:05:00
12:25 AM,59.0,53.6,82,30.04,5.0,SSW,5.8,-,N/A,Rain,Light Rain,200,2013-03-31 07:25:00
12:45 AM,57.2,53.6,88,30.02,2.0,West,3.5,-,N/A,Rain,Rain,270,2013-03-31 07:45:00
1:05 AM,57.2,53.6,88,30.03,3.0,Calm,Calm,-,N/A,Rain,Light Rain,0,2013-03-31 08:05:00
1:25 AM,57.2,55.4,94,30.05,5.0,SSE,6.9,-,N/A,Rain,Light Rain,160,2013-03-31 08:25:00
1:45 AM,57.2,55.4,94,30.04,3.0,ENE,5.8,-,N/A,Rain,Light Rain,60,2013-03-31 08:45:00
2:05 AM,57.2,55.4,94,30.04,4.0,ENE,3.5,-,N/A,Rain,Light Rain,60,2013-03-31 09:05:00
2:25 AM,57.2,55.4,94,30.05,4.0,Calm,Calm,-,N/A,Rain,Light Rain,0,2013-03-31 09:25:00
2:45 AM,57.2,55.4,94,30.06,3.0,South,6.9,-,N/A,Rain,Light Rain,170,2013-03-31 09:45:00
3:05 AM,55.4,55.4,100,30.05,2.0,SE,10.4,-,N/A,Rain,Rain,130,2013-03-31 10:05:00
3:25 AM,55.4,55.4,100,30.06,2.5,SE,8.1,-,N/A,Rain,Light Rain,140,2013-03-31 10:25:00
3:45 AM,55.4,53.6,94,30.05,3.0,SE,8.1,-,N/A,Rain,Light Rain,130,2013-03-31 10:45:00
4:05 AM,55.4,55.4,100,30.06,3.0,SSE,8.1,-,N/A,Rain,Rain,150,2013-03-31 11:05:00
4:25 AM,55.4,55.4,100,30.06,2.5,SE,8.1,-,N/A,Rain,Light Rain,140,2013-03-31 11:25:00
4:45 AM,55.4,55.4,100,30.07,5.0,SE,9.2,-,N/A,Rain,Light Rain,140,2013-03-31 11:45:00
5:05 AM,55.4,55.4,100,30.07,1.8,SSE,5.8,-,N/A,Rain,Light Rain,150,2013-03-31 12:05:00
5:25 AM,55.4,55.4,100,30.07,3.0,SSE,5.8,-,N/A,Rain,Light Rain,160,2013-03-31 12:25:00
5:45 AM,55.4,55.4,100,30.07,2.5,SSE,3.5,-,N/A,Rain,Light Rain,150,2013-03-31 12:45:00
6:05 AM,55.4,53.6,94,30.08,5.0,South,3.5,-,N/A,Rain,Light Rain,170,2013-03-31 13:05:00
6:25 AM,55.4,53.6,94,30.08,5.0,SSW,4.6,-,N/A,Rain,Light Rain,210,2013-03-31 13:25:00
6:45 AM,55.4,53.6,94,30.08,3.0,Calm,Calm,-,N/A,Rain,Light Rain,0,2013-03-31 13:45:00
7:05 AM,55.4,53.6,94,30.08,1.8,Calm,Calm,-,N/A,Rain,Light Rain,0,2013-03-31 14:05:00
7:25 AM,55.4,53.6,94,30.09,3.0,Calm,Calm,-,N/A,Rain,Light Rain,0,2013-03-31 14:25:00
7:45 AM,55.4,53.6,94,30.09,5.0,SSE,5.8,-,N/A,Rain,Light Rain,160,2013-03-31 14:45:00
8:05 AM,55.4,53.6,94,30.09,1.2,SE,4.6,-,N/A,Rain,Light Rain,140,2013-03-31 15:05:00
8:25 AM,55.4,55.4,100,30.09,10.0,SE,8.1,-,N/A,Rain,Light Rain,130,2013-03-31 15:25:00
8:45 AM,57.2,55.4,94,30.10,10.0,SSE,5.8,-,N/A,,Overcast,160,2013-03-31 15:45:00
9:05 AM,57.2,55.4,94,30.10,10.0,South,10.4,-,N/A,,Overcast,170,2013-03-31 16:05:00
9:25 AM,59.0,55.4,88,30.10,10.0,SE,9.2,-,N/A,,Scattered Clouds,140,2013-03-31 16:25:00
9:45 AM,59.0,55.4,88,30.11,10.0,SE,11.5,-,N/A,,Scattered Clouds,140,2013-03-31 16:45:00
10:05 AM,60.8,55.4,82,30.11,10.0,SSE,10.4,-,N/A,,Partly Cloudy,150,2013-03-31 17:05:00
10:25 AM,60.8,53.6,77,30.11,10.0,SSE,10.4,-,N/A,,Clear,160,2013-03-31 17:25:00
10:45 AM,62.6,53.6,72,30.11,10.0,SSE,9.2,-,N/A,,Mostly Cloudy,160,2013-03-31 17:45:00
11:05 AM,62.6,51.8,68,30.11,10.0,SSE,6.9,-,N/A,,Scattered Clouds,150,2013-03-31 18:05:00
11:25 AM,64.4,51.8,64,30.10,10.0,South,8.1,-,N/A,,Partly Cloudy,180,2013-03-31 18:25:00
11:45 AM,64.4,51.8,64,30.10,10.0,South,10.4,-,N/A,,Partly Cloudy,170,2013-03-31 18:45:00
12:05 PM,64.4,50.0,59,30.10,9.0,SSE,6.9,-,N/A,,Clear,160,2013-03-31 19:05:00
12:25 PM,66.2,50.0,56,30.09,9.0,SW,6.9,18.4,N/A,,Partly Cloudy,220,2013-03-31 19:25:00
12:45 PM,66.2,48.2,52,30.09,10.0,South,8.1,-,N/A,,Scattered Clouds,170,2013-03-31 19:45:00
1:05 PM,64.4,48.2,56,30.08,10.0,SSW,5.8,-,N/A,,Mostly Cloudy,210,2013-03-31 20:05:00
1:25 PM,66.2,46.4,49,30.07,10.0,SSE,5.8,-,N/A,,Mostly Cloudy,150,2013-03-31 20:25:00
1:45 PM,68.0,48.2,49,30.06,9.0,SSE,8.1,-,N/A,,Mostly Cloudy,150,2013-03-31 20:45:00
2:05 PM,68.0,46.4,46,30.04,10.0,South,6.9,-,N/A,,Partly Cloudy,190,2013-03-31 21:05:00
2:25 PM,68.0,44.6,43,30.04,10.0,South,6.9,-,N/A,,Partly Cloudy,170,2013-03-31 21:25:00
2:45 PM,66.2,46.4,49,30.03,10.0,SSE,4.6,-,N/A,,Partly Cloudy,160,2013-03-31 21:45:00
3:05 PM,66.2,46.4,49,30.02,10.0,SSE,8.1,-,N/A,,Mostly Cloudy,150,2013-03-31 22:05:00
3:25 PM,68.0,46.4,46,30.01,10.0,SSE,9.2,-,N/A,,Partly Cloudy,150,2013-03-31 22:25:00
3:45 PM,68.0,46.4,46,30.01,10.0,SE,6.9,-,N/A,,Scattered Clouds,140,2013-03-31 22:45:00
4:05 PM,68.0,46.4,46,30.00,10.0,SSE,6.9,-,N/A,,Mostly Cloudy,160,2013-03-31 23:05:00
4:25 PM,66.2,46.4,49,30.00,10.0,SE,4.6,-,N/A,,Scattered Clouds,140,2013-03-31 23:25:00
4:45 PM,66.2,46.4,49,30.00,10.0,South,5.8,-,N/A,,Scattered Clouds,190,2013-03-31 23:45:00
5:05 PM,66.2,46.4,49,30.00,10.0,South,6.9,-,N/A,,Partly Cloudy,190,2013-04-01 00:05:00
5:25 PM,62.6,48.2,59,30.01,10.0,WSW,20.7,25.3,N/A,,Scattered Clouds,240,2013-04-01 00:25:00
5:45 PM,59.0,48.2,67,30.02,10.0,West,13.8,-,N/A,,Clear,260,2013-04-01 00:45:00
6:05 PM,57.2,48.2,72,30.02,10.0,West,9.2,-,N/A,,Clear,270,2013-04-01 01:05:00
6:25 PM,57.2,48.2,72,30.03,10.0,West,6.9,-,N/A,,Scattered Clouds,280,2013-04-01 01:25:00
6:45 PM,57.2,50.0,77,30.03,10.0,West,5.8,-,N/A,,Scattered Clouds,280,2013-04-01 01:45:00
7:05 PM,57.2,48.2,72,30.03,10.0,West,5.8,-,N/A,,Mostly Cloudy,280,2013-04-01 02:05:00
7:25 PM,57.2,50.0,77,30.03,10.0,West,3.5,-,N/A,,Mostly Cloudy,260,2013-04-01 02:25:00
7:45 PM,57.2,50.0,77,30.03,10.0,Calm,Calm,-,N/A,,Mostly Cloudy,0,2013-04-01 02:45:00
8:05 PM,55.4,50.0,82,30.04,10.0,NNW,5.8,-,N/A,,Scattered Clouds,340,2013-04-01 03:05:00
8:25 PM,55.4,50.0,82,30.05,10.0,NNE,5.8,-,N/A,,Mostly Cloudy,30,2013-04-01 03:25:00
8:45 PM,57.2,50.0,77,30.07,9.0,SE,5.8,-,N/A,Rain,Light Rain,130,2013-04-01 03:45:00
9:05 PM,57.2,51.8,82,30.08,7.0,SE,6.9,-,N/A,Rain,Light Rain,130,2013-04-01 04:05:00
9:25 PM,55.4,53.6,94,30.08,6.0,ENE,4.6,-,N/A,Rain,Light Rain,70,2013-04-01 04:25:00
9:45 PM,57.2,53.6,88,30.08,10.0,East,3.5,-,N/A,Rain,Light Rain,90,2013-04-01 04:45:00
10:05 PM,57.2,53.6,88,30.08,9.0,East,3.5,-,N/A,,Mostly Cloudy,100,2013-04-01 05:05:00
10:25 PM,55.4,53.6,94,30.07,9.0,ESE,3.5,-,N/A,,Partly Cloudy,120,2013-04-01 05:25:00
10:45 PM,57.2,53.6,88,30.07,10.0,East,5.8,-,N/A,,Clear,100,2013-04-01 05:45:00
11:05 PM,55.4,53.6,94,30.07,10.0,East,5.8,-,N/A,,Clear,90,2013-04-01 06:05:00
11:25 PM,55.4,53.6,94,30.08,10.0,SSE,5.8,-,N/A,,Partly Cloudy,150,2013-04-01 06:25:00
11:45 PM,55.4,53.6,94,30.08,10.0,ESE,6.9,-,N/A,,Clear,120,2013-04-01 06:45:00